Tracking 26544 objects as of 9-Dec-2022
HD Live streaming from Space Station
objects crossing your sky now

STARLINK-4528

Track STARLINK-4528 now!
10-day predictions
STARLINK-4528 is classified as:


NORAD ID: 53399
Int'l Code: 2022-097M
Perigee: 545.7 km
Apogee: 548.0 km
Inclination: 53.2 °
Period: 95.4 minutes
Semi major axis: 6917 km
RCS: Unknown
Launch date: August 10, 2022
Source: United States (US)
Launch site: AIR FORCE EASTERN TEST RANGE (AFETR)
aabbcc
Your satellite tracking list
Your tracking list is empty




NASA's NSSDC Master Catalog

Two Line Element Set (TLE):
1 53399U 22097M   22342.53572909  .00001672  00000-0  12312-3 0  9990
2 53399  53.2192  53.4690 0001654  47.2058 312.9073 15.08836292 18808
Source of the keplerian elements: AFSPC